Meteopurmerend
purmerend
Purmerend - Baaienwijk



My webcam  My webcam


Onweer radar Meer informatie blitzortung!


Regen radar Meer informatie rain snow radar


Bezoek onze andere website:

CandyAppleRed WebdesignWebdesign Purmerend Candy Apple Red

MeteopurmerendBlog

Template documentation
and downloads



Het weer levert geen direct gevaar op.    Er zijn geen waarschuwingen afgegeven.

15 daagse weersverwachting Aveiro (PT)

  • Overzicht
  • Per uur
  • 15 dagen
  • Extra
  • Vergelijk
  • Kaarten
  • Dagkaart
  • Meer »
  • Info
  • Statistieken
  • Directe link
    Temp 6h Neerslag Wind  
 07:12     20:03    Daglengte: 12:51 Vandaag
07:00
11°
 
4
13:00
19°
 
7
19:00
17°
 
6
 07:11     20:04    Daglengte: 12:53 Morgen
01:00
15°
 
7
07:00
14°
2.2 mm
7
13:00
17°
7.2 mm
7
warningclass
19:00
16°
21.4 mm
4
 07:09     20:05    Daglengte: 12:56 Maandag 06 Apr
01:00
13°
12.2 mm
2
07:00
13°
 
1
13:00
16°
21.8 mm
2
19:00
15°
13.5 mm
4
 07:08     20:06    Daglengte: 12:58 Dinsdag 07 Apr
01:00
13°
13.9 mm
2
Locatie info
Region: Aveiro
Latitude: 40.6412°N
Longitude: -8.6539°E
19 masl
Postcode: 3810-085
Temp/Neerslag /Baro Onweer/Dauwpunt
    Temp Baro 1h Neerslag Dauwpunt Wind UV Bewolking  
 07:12     20:03    Daglengte: 12:51 Vandaag
04:00
10°
Voelt als: 9.0°
1011.2 hPa   8.1°
2
Windvlaag: 1.2 m/s
28%
05:00
10°
Voelt als: 9.3°
1010.8 hPa   7.5°
2
Windvlaag: 1.5 m/s
47%
06:00
11°
1010.5 hPa   5.9°
3
Windvlaag: 1.5 m/s
60%
07:00
11°
1010.4 hPa   5.3°
4
Windvlaag: 1.7 m/s
49%
08:00
12°
1010.8 hPa   5.9°
4
Windvlaag: 2.6 m/s
84%
09:00
14°
1011.0 hPa   6.7°
5
Windvlaag: 2.9 m/s
86%
10:00
16°
1010.8 hPa   7.2°
5
Windvlaag: 2.8 m/s
85%
11:00
17°
1010.6 hPa
13%
7.3°
6
Windvlaag: 3.6 m/s
89%
12:00
18°
1010.5 hPa   7.9°
6
Windvlaag: 4.5 m/s
89%
13:00
19°
1010.1 hPa   6.4°
7
Windvlaag: 4.8 m/s
90%
14:00
19°
1010.0 hPa   6.7°
7
Windvlaag: 5.9 m/s
84%
15:00
19°
1009.6 hPa   8.1°
7
Windvlaag: 6.1 m/s
88%
16:00
19°
1009.4 hPa   8.1°
7
Windvlaag: 5.6 m/s
87%
17:00
18°
1009.3 hPa   7.7°
7
Windvlaag: 5.6 m/s
91%
18:00
18°
1009.1 hPa   8.7°
6
Windvlaag: 5.2 m/s
91%
19:00
17°
1009.3 hPa   9.1°
6
Windvlaag: 3.9 m/s
80%
20:00
16°
1009.6 hPa   9.1°
5
Windvlaag: 3.6 m/s
70%
21:00
16°
1010.0 hPa   9.4°
6
Windvlaag: 5.2 m/s
74%
22:00
15°
1010.3 hPa   9.7°
6
Windvlaag: 5.6 m/s
65%
23:00
15°
1010.2 hPa   10.0°
7
Windvlaag: 5.6 m/s
76%
 07:11     20:04    Daglengte: 12:53 Morgen
00:00
15°
1010.2 hPa   10.7°
6
Windvlaag: 5.6 m/s
76%
01:00
15°
1010.1 hPa
29%
11.1°
7
Windvlaag: 6 m/s
83%
02:00
15°
1010.1 hPa 0.4 mm
82%
10.9°
7
Windvlaag: 6.4 m/s
87%
03:00
14°
1009.7 hPa 0.5 mm
82%
10.9°
7
Windvlaag: 6.4 m/s
88%
04:00
14°
1009.6 hPa 0.5 mm
82%
10.9°
7
Windvlaag: 6.1 m/s
90%
05:00
14°
1009.6 hPa 0.8 mm
82%
11.1°
7
Windvlaag: 5.8 m/s
86%
06:00
14°
1009.7 hPa
82%
11.4°
7
Windvlaag: 5.6 m/s
81%
07:00
14°
1010.2 hPa
82%
11.4°
7
Windvlaag: 5.6 m/s
70%
08:00
14°
1010.7 hPa 0.6 mm
82%
11.5°
7
Windvlaag: 5.3 m/s
73%
09:00
15°
1011.4 hPa 0.7 mm
82%
12.0°
7
Windvlaag: 5.8 m/s
75%
10:00
15°
1011.5 hPa 0.8 mm
82%
12.6°
7
Windvlaag: 5.9 m/s
79%
11:00
15°
1011.8 hPa 1.0 mm
82%
13.1°
7
Windvlaag: 5.8 m/s
87% warningclass
12:00
16°
1012.0 hPa 1.6 mm
82%
13.0°
7
Windvlaag: 5.5 m/s
89% warningclass
13:00
17°
1012.0 hPa 2.5 mm
82%
13.5°
7
Windvlaag: 4.5 m/s
91% warningclass
14:00
16°
1011.9 hPa 3.0 mm
82%
13.9°
6
Windvlaag: 4.7 m/s
87%
15:00
17°
1011.9 hPa 3.0 mm
80%
14.2°
6
Windvlaag: 5.4 m/s
83%
16:00
16°
1011.6 hPa 3.8 mm
81%
14.1°
6
Windvlaag: 5 m/s
81%
17:00
17°
1011.5 hPa 3.4 mm
82%
14.2°
5
Windvlaag: 5.5 m/s
77%
18:00
17°
1011.6 hPa 3.3 mm
82%
14.4°
5
Windvlaag: 6.2 m/s
66%
19:00
16°
1011.9 hPa 4.9 mm
82%
14.4°
4
Windvlaag: 5.2 m/s
86%
20:00
15°
1012.2 hPa 5.7 mm
80%
14.3°
3
Windvlaag: 2.1 m/s
90%
21:00
14°
1012.9 hPa 6.5 mm
76%
13.9°
3
Windvlaag: 1.1 m/s
88%
22:00
14°
1014.2 hPa
86%
13.6°
3
Windvlaag: 0.7 m/s
98%
23:00
14°
1014.6 hPa
39%
13.4°
2
Windvlaag: 0.6 m/s
93%
 07:09     20:05    Daglengte: 12:56 Maandag 06 Apr
00:00
14°
1015.1 hPa
37%
12.8°
2
Windvlaag: 0.8 m/s
93%
01:00
13°
1015.6 hPa
35%
12.7°
2
Windvlaag: 0.8 m/s
77%
02:00
13°
1016.0 hPa
76%
12.4°
2
Windvlaag: 1 m/s
67%
03:00
13°
1016.1 hPa
33%
12.1°
2
Windvlaag: 1.4 m/s
89%
04:00
13°
1016.6 hPa
30%
11.7°
2
Windvlaag: 1 m/s
81%
05:00
13°
1017.0 hPa
37%
11.8°
1
Windvlaag: 1 m/s
38%
06:00
13°
1017.4 hPa
30%
12.1°
1
Windvlaag: 0.6 m/s
42%
07:00
13°
1017.8 hPa
31%
12.3°
1
Windvlaag: 0.5 m/s
76%
08:00
12°
1018.7 hPa
84%
11.9°
1
Windvlaag: 0.1 m/s
75%
09:00
13°
1019.5 hPa
93%
11.8°
1
Windvlaag: 0.1 m/s
58%
10:00
14°
1020.1 hPa
100%
11.7°
1
Windvlaag: 0.2 m/s
61%
11:00
15°
1020.6 hPa 7.1 mm
100%
11.5°
1
Windvlaag: 0.2 m/s
58%
12:00
16°
1020.8 hPa 7.7 mm
100%
11.0°
1
Windvlaag: 0.2 m/s
40%
13:00
16°
1020.9 hPa 7.0 mm
100%
11.0°
2
Windvlaag: 0.4 m/s
60%
14:00
17°
1020.9 hPa 6.8 mm
98%
11.7°
3
Windvlaag: 0.5 m/s
30%
15:00
16°
1021.1 hPa 6.8 mm
94%
11.2°
4
Windvlaag: 0.5 m/s
24%
16:00
16°
1020.9 hPa
84%
11.1°
4
Windvlaag: 0.5 m/s
21%
17:00
16°
1020.9 hPa
34%
11.5°
4
Windvlaag: 0.5 m/s
11%
18:00
16°
1020.9 hPa
27%
11.8°
3
Windvlaag: 0.4 m/s
3%
19:00
15°
1021.0 hPa
21%
11.7°
4
Windvlaag: 0.4 m/s
16%
20:00
14°
1021.3 hPa
24%
11.3°
3
Windvlaag: 3.9 m/s
20%
21:00
14°
1021.6 hPa
23%
11.0°
3
Windvlaag: 2.6 m/s
22%
22:00
13°
1022.0 hPa
26%
11.0°
2
Windvlaag: 1.7 m/s
23%
23:00
13°
1022.2 hPa
76%
10.9°
2
Windvlaag: 1.3 m/s
23%
 07:08     20:06    Daglengte: 12:58 Dinsdag 07 Apr
00:00
13°
1022.2 hPa 6.8 mm
81%
11.1°
2
Windvlaag: 1.2 m/s
40%
01:00
13°
1022.3 hPa 7.0 mm
97%
11.2°
2
Windvlaag: 0.1 m/s
50%
02:00
11°
1023.4 hPa 20.1 mm
100%
9.7°
2
Windvlaag: 1.3 m/s
20%
03:00
11°
1023.3 hPa 20.1 mm
100%
9.5°
2
Windvlaag: 1.4 m/s
28%
Temp/Neerslag /Baro Onweer/Dauwpunt
    Temp Baro Neerslag Dauwpunt Wind Bewolking  
 07:12     20:03    Daglengte: 12:51 Vandaag
04:00
10°
Voelt als: 9.0°
1011.2 hPa   8.1°
2
28%
07:00
11°
1010.4 hPa   5.3°
4
49%
10:00
16°
1010.8 hPa   7.2°
5
85%
13:00
19°
1010.1 hPa   6.4°
7
90%
16:00
19°
1009.4 hPa   8.1°
7
87%
19:00
17°
1009.3 hPa   9.1°
6
80%
22:00
15°
1010.3 hPa   9.7°
6
65%
 07:11     20:04    Daglengte: 12:53 Morgen
01:00
15°
1010.1 hPa   11.1°
7
83%
04:00
14°
1009.6 hPa 1.4 mm 10.9°
7
90%
07:00
14°
1010.2 hPa 0.8 mm 11.4°
7
70%
10:00
15°
1011.5 hPa 2.1 mm 12.6°
7
79%
13:00
17°
1012.0 hPa 5.1 mm 13.5°
7
91% warningclass
16:00
16°
1011.6 hPa 9.7 mm 14.1°
6
81%
19:00
16°
1011.9 hPa 11.6 mm 14.4°
4
86%
22:00
14°
1014.2 hPa 12.2 mm 13.6°
3
98%
 07:09     20:05    Daglengte: 12:56 Maandag 06 Apr
01:00
13°
1015.6 hPa   12.7°
2
77%
04:00
13°
1016.6 hPa   11.7°
2
81%
07:00
13°
1017.8 hPa   12.3°
1
76%
10:00
14°
1020.1 hPa   11.7°
1
61%
13:00
16°
1020.9 hPa 21.8 mm 11.0°
2
60%
16:00
16°
1020.9 hPa 13.5 mm 11.1°
4
21%
19:00
15°
1021.0 hPa   11.7°
4
16%
22:00
13°
1022.0 hPa   11.0°
2
23%
 07:08     20:06    Daglengte: 12:58 Dinsdag 07 Apr
01:00
13°
1022.3 hPa 13.9 mm 11.2°
2
50%
04:00
10°
1023.3 hPa 60.2 mm 9.4°
2
42%
07:00
1023.4 hPa 60.1 mm 8.9°
1
85%
10:00
15°
1024.0 hPa 26.3 mm 11.4°
1
33%
13:00
19°
1024.2 hPa 26.4 mm 12.0°
2
4%
16:00
18°
1023.3 hPa 26.6 mm 11.9°
3
12%
19:00
17°
1022.6 hPa 26.7 mm 11.7°
3
20%
22:00
15°
1022.9 hPa 26.7 mm 11.5°
2
48%
 07:06     20:07    Daglengte: 13:01 Woensdag 08 Apr
01:00
13°
1023.0 hPa 26.7 mm 11.3°
1
77%
04:00
13°
1022.1 hPa 26.7 mm 9.9°
2
60%
07:00
12°
1021.3 hPa 26.7 mm 8.5°
3
43%
10:00
17°
1021.3 hPa 27.4 mm 10.7°
4
65%
13:00
21°
1021.4 hPa 28.1 mm 12.4°
4
87%
16:00
19°
1020.9 hPa 28.9 mm 13.0°
3
89%
19:00
16°
1020.4 hPa 29.1 mm 12.8°
2
91%
22:00
15°
1020.1 hPa 29.2 mm 12.7°
2
91%
 07:04     20:08    Daglengte: 13:04 Donderdag 09 Apr
01:00
14°
1019.9 hPa 29.2 mm 12.8°
2
92%
04:00
15°
1019.1 hPa 30.3 mm 11.3°
2
91%
07:00
15°
1018.5 hPa 35.1 mm 9.7°
3
91%
10:00
17°
1018.9 hPa 37.1 mm 10.0°
4
73%
13:00
19°
1019.4 hPa 37.5 mm 10.2°
5
55%
16:00
17°
1019.1 hPa 37.9 mm 12.2°
4
72%
19:00
16°
1018.8 hPa 38.0 mm 13.5°
3
89%
22:00
15°
1019.4 hPa 38.0 mm 13.1°
2
74%
 07:03     20:09    Daglengte: 13:06 Vrijdag 10 Apr
01:00
14°
1019.8 hPa 38.0 mm 12.7°
2
59%
04:00
13°
1019.3 hPa 38.0 mm 12.6°
1
75%
07:00
13°
1018.9 hPa 38.0 mm 12.5°
1
91%
10:00
15°
1019.4 hPa 38.0 mm 13.1°
2
91%
13:00
16°
1019.7 hPa 38.1 mm 13.6°
2
92%
16:00
16°
1018.9 hPa 38.1 mm 13.3°
3
69%
19:00
15°
1018.2 hPa 38.1 mm 13.1°
4
47%
22:00
14°
1018.4 hPa 38.1 mm 12.7°
4
48%
 07:01     20:10    Daglengte: 13:09 Zaterdag 11 Apr
01:00
13°
1018.6 hPa 76.1 mm 12.4°
4
49%
07:00
13°
1017.8 hPa 76.1 mm 12.1°
3
62%
13:00
18°
1017.5 hPa 76.1 mm 13.3°
3
57%
19:00
17°
1014.9 hPa 76.2 mm 14.3°
4
82%
 07:00     20:11    Daglengte: 13:11 Zondag 12 Apr
01:00
14°
1014.9 hPa 76.2 mm 13.2°
1
86%
07:00
13°
1013.1 hPa 76.2 mm 12.5°
1
84%
13:00
19°
1012.0 hPa 76.2 mm 13.6°
4
87%
19:00
16°
1009.6 hPa 76.2 mm 14.2°
1
85%
 06:58     20:12    Daglengte: 13:14 Maandag 13 Apr
01:00
14°
1009.7 hPa 76.2 mm 13.4°
3
91%
07:00
13°
1009.6 hPa 76.2 mm 11.2°
4
44%
13:00
19°
1012.7 hPa 76.2 mm 14.9°
5
0%
19:00
19°
1011.7 hPa 76.5 mm 14.2°
6
0%
 06:57     20:13    Daglengte: 13:16 Dinsdag 14 Apr
01:00
12°
1017.7 hPa 0.3 mm 8.7°
2
27%
07:00
11°
1016.5 hPa 0.5 mm 7.6°
2
31%
13:00
18°
1017.1 hPa 0.1 mm 9.8°
2
32%
19:00
17°
1015.6 hPa 0.1 mm 10.7°
3
24%
 06:55     20:14    Daglengte: 13:19 Woensdag 15 Apr
01:00
13°
1017.7 hPa 0.4 mm 9.1°
2
25%
07:00
12°
1017.3 hPa 0.3 mm 8.5°
2
31%
13:00
19°
1018.0 hPa 0.3 mm 11.4°
1
29%
19:00
18°
1016.5 hPa 0.2 mm 11.7°
3
24%
 06:54     20:15    Daglengte: 13:21 Donderdag 16 Apr
01:00
13°
1018.1 hPa   9.6°
2
22%
07:00
12°
1017.3 hPa   8.6°
1
24%
13:00
19°
1017.7 hPa   11.1°
1
29%
19:00
17°
1016.1 hPa   11.5°
3
27%
 06:52     20:16    Daglengte: 13:24 Vrijdag 17 Apr
01:00
13°
1017.4 hPa 0.1 mm 9.8°
2
31%
07:00
13°
1016.6 hPa 0.3 mm 9.2°
1
33%
13:00
19°
1017.0 hPa 0.8 mm 11.5°
1
32%
19:00
17°
1015.6 hPa 0.3 mm 11.2°
3
22%
 06:51     20:17    Daglengte: 13:26 Zaterdag 18 Apr
01:00
13°
1016.8 hPa 0.2 mm 9.0°
1
22%
07:00
12°
1016.3 hPa 0.3 mm 8.3°
1
21%
13:00
19°
1016.7 hPa 0.2 mm 10.7°
2
25%
19:00
17°
1015.2 hPa 0.3 mm 11.3°
3
26%
 06:49     20:18    Daglengte: 13:29 Zondag 19 Apr
01:00
12°
1016.0 hPa 0.2 mm 9.2°
2
29%
  CAPE Lifted Index Hail Supercell Tornado SRH 3km CL BTM PRES CL TOP PRES Swiss DWD icon SMHI TS
 07:12     20:03    Daglengte: 12:51 Vandaag
04:00 0 J/kg 5.7 K 0 % 0 % 0 % 0 m²/s² 0 0 14.1 3
05:00 0 J/kg 6.2 K 0 % 0 % 0 % 0 m²/s² 0 0 14.6 3
06:00 0 J/kg 5.8 K 0 % 0 % 0 % 0 m²/s² 0 0 13.87 2
07:00 0 J/kg 6.5 K 0 % 0 % 0 % 0 m²/s² 0 0 13.7 2
08:00 0 J/kg 6.3 K 0 % 0 % 0 % 0 m²/s² 0 0 13.26 3
09:00 0 J/kg 7.8 K 0 % 0 % 0 % 0 m²/s² 0 0 13.92 3
10:00 0 J/kg 9.1 K 0 % 0 % 0 % 0 m²/s² 0 0 14.89 3
11:00 0 J/kg 9.5 K 0 % 0 % 0 % 0 m²/s² 0 0 13.94 3
12:00 0 J/kg 9.9 K 0 % 0 % 0 % 0 m²/s² 0 0 14.82 3
13:00 0 J/kg 8.2 K 0 % 0 % 0 % 0 m²/s² 0 0 10.39 3
14:00 0 J/kg 6.5 K 0 % 0 % 0 % 0 m²/s² 0 0 7.19 3
15:00 14 J/kg 5.3 K 0 % 0 % 0 % 0 m²/s² 0 0 5.51 3
16:00 22 J/kg 4.8 K 0 % 0 % 0 % 0 m²/s² 0 0 4.98 3
17:00 37 J/kg 4.7 K 0 % 0 % 0 % 0 m²/s² 0 0 4.91 3
18:00 41 J/kg 3.0 K 0 % 0 % 0 % 0 m²/s² 0 0 3.93 3
19:00 20 J/kg 3.0 K 0 % 0 % 0 % 0 m²/s² 0 0 4.38 3
20:00 0 J/kg 3.3 K 0 % 0 % 0 % 0 m²/s² 0 0 5.07 3
21:00 0 J/kg 3.3 K 0 % 0 % 0 % 0 m²/s² 0 0 4.83 3
22:00 0 J/kg 3.0 K 0 % 0 % 0 % 0 m²/s² 0 0 4.05 3
23:00 0 J/kg 3.4 K 0 % 0 % 0 % 0 m²/s² 0 0 4.27 3
 07:11     20:04    Daglengte: 12:53 Morgen
00:00 0 J/kg 2.0 K 0 % 0 % 0 % 0 m²/s² 0 0 2.24 3
01:00 0 J/kg 1.7 K 0 % 0 % 0 % 0 m²/s² 0 0 1.91 3
02:00 0 J/kg 0.8 K 0 % 0 % 0 % 0 m²/s² 0 0 1.49 80
03:00 0 J/kg 0.1 K 0 % 0 % 0 % 0 m²/s² 0 0 1.03 80
04:00 0 J/kg -0.2 K 0 % 0 % 0 % 0 m²/s² 0 0 1.51 80
05:00 0 J/kg -0.2 K 0 % 0 % 0 % 0 m²/s² 0 0 1.51 80
06:00 0 J/kg 0.3 K 0 % 0 % 0 % 0 m²/s² 0 0 1.23 80
07:00 0 J/kg 0.8 K 0 % 0 % 0 % 0 m²/s² 0 0 1.19 80
08:00 0 J/kg 0.7 K 0 % 0 % 0 % 0 m²/s² 0 0 0.82 80
09:00 0 J/kg 0.4 K 0 % 0 % 0 % 0 m²/s² 0 0 0.61 80
10:00 49 J/kg 0.3 K 0 % 0 % 0 % 0 m²/s² 0 0 0.42 80
11:00 21 J/kg 0.4 K 0 % 0 % 0 % 0 m²/s² 0 0 0.49 95
12:00 84 J/kg -0.1 K 0 % 0 % 0 % 0 m²/s² 0 0 -0.01 95
13:00 201 J/kg -0.5 K 0 % 0 % 0 % 0 m²/s² 0 0 -0.38 95
14:00 176 J/kg -0.6 K 0 % 0 % 0 % 0 m²/s² 0 0 -0.42 80
15:00 90 J/kg 0.5 K 0 % 0 % 0 % 0 m²/s² 0 0 0.59 3
16:00 98 J/kg 0.6 K 0 % 0 % 0 % 0 m²/s² 0 0 0.69 80
17:00 140 J/kg 0.5 K 0 % 0 % 0 % 0 m²/s² 0 0 1.16 2
18:00 207 J/kg 0.5 K 0 % 0 % 0 % 0 m²/s² 0 0 2.27 80
19:00 181 J/kg 0.7 K 0 % 0 % 0 % 0 m²/s² 0 0 2.92 80
20:00 92 J/kg 1.2 K 0 % 0 % 0 % 0 m²/s² 0 0 5.61 3
21:00 54 J/kg 2.0 K 0 % 0 % 0 % 0 m²/s² 0 0 6.08 80
22:00 31 J/kg 2.4 K 0 % 0 % 0 % 0 m²/s² 0 0 6.09 3
23:00 4 J/kg 3.0 K 0 % 0 % 0 % 0 m²/s² 0 0 6.3 3
 07:09     20:05    Daglengte: 12:56 Maandag 06 Apr
00:00 12 J/kg 2.9 K 0 % 0 % 0 % 0 m²/s² 0 0 5.72 3
01:00 33 J/kg 3.0 K 0 % 0 % 0 % 0 m²/s² 0 0 5.28 3
02:00 89 J/kg 2.5 K 0 % 0 % 0 % 0 m²/s² 0 0 4.33 3
03:00 106 J/kg 2.0 K 0 % 0 % 0 % 0 m²/s² 0 0 3.59 45
04:00 141 J/kg 1.7 K 0 % 0 % 0 % 0 m²/s² 0 0 2.9 45
05:00 136 J/kg 1.7 K 0 % 0 % 0 % 0 m²/s² 0 0 2.51 45
06:00 118 J/kg 2.0 K 0 % 0 % 0 % 0 m²/s² 0 0 2.69 45
07:00 89 J/kg 2.5 K 0 % 0 % 0 % 0 m²/s² 0 0 3.22 45
08:00 45 J/kg 2.9 K 0 % 0 % 0 % 0 m²/s² 0 0 3.62 45
09:00 26 J/kg 2.8 K 0 % 0 % 0 % 0 m²/s² 0 0 3.49 45
10:00 42 J/kg 2.1 K 0 % 0 % 0 % 0 m²/s² 0 0 2.82 61
11:00 67 J/kg 1.3 K 0 % 0 % 0 % 0 m²/s² 0 0 2.02 61
12:00 71 J/kg 0.9 K 0 % 0 % 0 % 0 m²/s² 0 0 1.53 61
13:00 68 J/kg 0.8 K 0 % 0 % 0 % 0 m²/s² 0 0 1.4 61
14:00 25 J/kg 1.3 K 0 % 0 % 0 % 0 m²/s² 0 0 1.9 3
15:00 9 J/kg 2.0 K 0 % 0 % 0 % 0 m²/s² 0 0 2.51 3
16:00 1 J/kg 2.5 K 0 % 0 % 0 % 0 m²/s² 0 0 2.92 3
17:00 0 J/kg 2.8 K 0 % 0 % 0 % 0 m²/s² 0 0 3.49 2
18:00 0 J/kg 3.2 K 0 % 0 % 0 % 0 m²/s² 0 0 3.83 3
19:00 0 J/kg 3.2 K 0 % 0 % 0 % 0 m²/s² 0 0 3.8 3
20:00 0 J/kg 3.5 K 0 % 0 % 0 % 0 m²/s² 0 0 4.01 3
21:00 0 J/kg 2.9 K 0 % 0 % 0 % 0 m²/s² 0 0 3.71 3
22:00 0 J/kg 1.5 K 0 % 0 % 0 % 0 m²/s² 0 0 2.76 3
23:00 0 J/kg 0.8 K 0 % 0 % 0 % 0 m²/s² 0 0 1.58 3
 07:08     20:06    Daglengte: 12:58 Dinsdag 07 Apr
00:00 0 J/kg 0.1 K 0 % 0 % 0 % 0 m²/s² 0 0 0.31 80
01:00 0 J/kg 0.0 K 0 % 0 % 0 % 0 m²/s² 0 0 0.24 80
02:00 0 J/kg -0.3 K 0 % 0 % 0 % 0 m²/s² 0 0 0.09
03:00 0 J/kg -0.5 K 0 % 0 % 0 % 0 m²/s² 0 0 0.19
Temp Baro Wind Neerslag
  EWN Forecast EWN WRFDA DWD ICON FMI HIRLAM MET Norway GFS
 07:12     20:03    Daglengte: 12:51 Vandaag
04:00 9.5° 1011.2 hPa 1.6 m/s 0.0 mm 9.8° 1010.0 hPa 3.0 m/s 0.0 mm 9.8° 1011.6 hPa 1.0 m/s -2.0 mm 10.1° 1011.3 hPa 1.3 m/s 0.0 mm 9.3° 1011.3 hPa 1.8 m/s 11.4° 1012.6 hPa 3.2 m/s
07:00 11.3° 1010.4 hPa 3.7 m/s 0.0 mm 10.7° 1009.5 hPa 5.0 m/s 0.0 mm 9.9° 1010.8 hPa 1.6 m/s 0.0 mm 12.5° 1010.7 hPa 4.1 m/s 0.0 mm 12.4° 1010.5 hPa 4.0 m/s 11.3° 1011.8 hPa 3.8 m/s
10:00 15.6° 1010.8 hPa 5.1 m/s 0.0 mm 15.9° 1010.3 hPa 6.0 m/s 0.0 mm 15.6° 1011.4 hPa 2.6 m/s 0.0 mm 15.8° 1010.8 hPa 5.4 m/s 0.0 mm 15.6° 1010.9 hPa 5.6 m/s 15.8° 1012.0 hPa 5.6 m/s
13:00 18.9° 1010.1 hPa 6.7 m/s 0.0 mm 19.0° 1009.6 hPa 7.1 m/s 0.0 mm 19.5° 1010.8 hPa 6.4 m/s 0.1 mm 18.7° 1010.2 hPa 6.8 m/s 0.0 mm 18.6° 1010.1 hPa 7.8 m/s 18.0° 1011.5 hPa 6.7 m/s
16:00 19.2° 1009.4 hPa 6.6 m/s 0.0 mm 19.8° 1008.5 hPa 7.5 m/s 0.0 mm 20.5° 1009.6 hPa 6.8 m/s 0.0 mm 19.6° 1009.3 hPa 7.1 m/s 0.0 mm 18.0° 1009.6 hPa 6.4 m/s 18.6° 1010.4 hPa 6.4 m/s
19:00 16.9° 1009.3 hPa 5.5 m/s 0.0 mm 16.7° 1009.4 hPa 6.2 m/s 0.0 mm 18.0° 1009.9 hPa 4.7 m/s 0.0 mm 17.8° 1009.0 hPa 5.8 m/s 0.0 mm 16.7° 1009.3 hPa 6.0 m/s 16.0° 1010.6 hPa 5.4 m/s
22:00 15.4° 1010.3 hPa 6.1 m/s 0.0 mm 15.1° 1010.4 hPa 6.1 m/s 0.0 mm 15.7° 1010.5 hPa 4.1 m/s 0.0 mm 16.7° 1009.7 hPa 6.4 m/s 0.0 mm 15.2° 1010.2 hPa 6.4 m/s 15.1° 1011.5 hPa 6.3 m/s
 07:11     20:04    Daglengte: 12:53 Morgen
01:00 15.3° 1010.1 hPa 7.0 m/s 0.0 mm 15.7° 1009.9 hPa 6.4 m/s 0.1 mm 15.0° 1010.4 hPa 4.7 m/s 0.0 mm 16.3° 1009.5 hPa 7.9 m/s 0.0 mm 14.4° 1010.3 hPa 7.3 m/s 14.5° 1011.1 hPa 7.0 m/s
04:00 14.1° 1009.6 hPa 6.9 m/s 1.4 mm 15.0° 1009.1 hPa 7.6 m/s 0.5 mm 13.8° 1010.0 hPa 4.6 m/s 1.4 mm 15.1° 1009.3 hPa 7.9 m/s 0.0 mm 13.7° 1009.6 hPa 7.1 m/s 13.7° 1010.2 hPa 6.7 m/s
07:00 14.0° 1010.2 hPa 6.9 m/s 0.8 mm 14.2° 1009.7 hPa 7.3 m/s 1.9 mm 13.5° 1010.6 hPa 4.8 m/s 2.5 mm 14.9° 1009.7 hPa 7.7 m/s 0.0 mm 13.8° 1010.2 hPa 7.1 m/s 13.3° 1010.3 hPa 6.7 m/s
10:00 15.3° 1011.5 hPa 6.9 m/s 2.1 mm 16.2° 1011.0 hPa 7.8 m/s 2.1 mm 15.5° 1012.1 hPa 5.6 m/s 2.9 mm 15.4° 1010.9 hPa 7.3 m/s 0.0 mm 15.1° 1011.9 hPa 7.0 m/s 14.4° 1011.7 hPa 6.8 m/s
13:00 16.7° 1012.0 hPa 6.5 m/s 5.1 mm 16.2° 1011.1 hPa 4.1 m/s 17.5 mm 16.9° 1012.3 hPa 4.7 m/s 3.4 mm 19.0° 1011.0 hPa 7.9 m/s 0.0 mm 16.6° 1012.2 hPa 7.3 m/s 14.3° 1011.9 hPa 5.8 m/s
16:00 16.4° 1011.6 hPa 5.6 m/s 9.7 mm 15.5° 1010.6 hPa 5.7 m/s 48.8 mm 18.1° 1012.8 hPa 5.3 m/s 2.2 mm 17.4° 1010.4 hPa 5.0 m/s 0.0 mm 16.1° 1012.0 hPa 7.0 m/s 14.2° 1011.3 hPa 3.2 m/s
19:00 15.8° 1011.9 hPa 4.0 m/s 11.6 mm 16.2° 1010.7 hPa 5.9 m/s 58.3 mm 15.8° 1013.8 hPa 3.4 m/s 1.3 mm 16.6° 1010.5 hPa 4.4 m/s 0.0 mm 15.9° 1011.7 hPa 3.4 m/s 15.1° 1011.6 hPa 3.9 m/s
22:00 14.2° 1014.2 hPa 2.7 m/s 12.2 mm 14.0° 1013.8 hPa 3.3 m/s 58.7 mm 14.6° 1015.9 hPa 0.3 m/s 0.7 mm 14.2° 1013.2 hPa 3.3 m/s 14.2° 1014.4 hPa 2.3 m/s
 07:09     20:05    Daglengte: 12:56 Maandag 06 Apr
01:00 13.4° 1015.6 hPa 1.9 m/s 0.0 mm 13.3° 1015.4 hPa 2.1 m/s 58.8 mm 14.2° 1016.0 hPa 0.4 m/s 0.0 mm 13.4° 1015.2 hPa 3.4 m/s 13.3° 1016.0 hPa 1.7 m/s
04:00 12.5° 1016.6 hPa 1.8 m/s 0.0 mm 13.8° 1016.2 hPa 1.3 m/s 59.4 mm 13.3° 1016.2 hPa 0.1 m/s 0.0 mm 12.3° 1016.7 hPa 2.1 m/s 12.8° 1017.1 hPa 1.1 m/s
07:00 12.5° 1017.8 hPa 1.2 m/s 0.0 mm 13.1° 1017.3 hPa 0.4 m/s 60.1 mm 13.1° 1016.7 hPa 0.5 m/s 0.0 mm 11.0° 1018.7 hPa 1.4 m/s 12.1° 1018.2 hPa 1.7 m/s
10:00 14.0° 1020.1 hPa 1.0 m/s 0.0 mm 13.3° 1019.4 hPa 1.0 m/s 60.2 mm 14.6° 1018.4 hPa 0.4 m/s 0.1 mm 14.0° 1021.2 hPa 1.2 m/s 14.9° 1019.8 hPa 1.6 m/s
13:00 16.4° 1020.9 hPa 2.2 m/s 21.8 mm 17.3° 1020.3 hPa 2.8 m/s 60.2 mm 15.6° 1018.7 hPa 1.5 m/s 2.7 mm 16.5° 1021.9 hPa 2.3 m/s 18.0° 1020.9 hPa 2.4 m/s
16:00 16.5° 1020.9 hPa 3.7 m/s 13.5 mm 17.4° 1020.4 hPa 3.6 m/s 60.2 mm 17.0° 1018.0 hPa 1.4 m/s 0.3 mm 15.8° 1022.2 hPa 4.4 m/s 17.4° 1020.7 hPa 3.3 m/s
19:00 15.3° 1021.0 hPa 3.5 m/s 0.0 mm 16.0° 1019.9 hPa 2.8 m/s 60.2 mm 17.2° 1018.1 hPa 1.4 m/s 0.0 mm 14.2° 1022.6 hPa 4.7 m/s 15.9° 1020.2 hPa 2.1 m/s
22:00 13.2° 1022.0 hPa 2.4 m/s 0.0 mm 12.9° 1021.6 hPa 1.7 m/s 60.2 mm 15.7° 1018.9 hPa 0.4 m/s 0.0 mm 12.6° 1023.2 hPa 3.5 m/s 13.1° 1022.3 hPa 1.4 m/s
 07:08     20:06    Daglengte: 12:58 Dinsdag 07 Apr
01:00 12.8° 1022.3 hPa 2.0 m/s 13.9 mm 14.7° 1021.5 hPa 0.9 m/s 60.2 mm 14.8° 1018.9 hPa 1.7 m/s 0.9 mm 11.0° 1023.8 hPa 2.4 m/s 14.0° 1022.5 hPa 1.8 m/s
04:00 10.5° 1023.3 hPa 1.6 m/s 60.2 mm 13.2° 1020.5 hPa 1.5 m/s 60.2 mm 10.1° 1023.8 hPa 1.6 m/s 14.2° 1021.8 hPa 1.7 m/s
07:00 9.5° 1023.4 hPa 1.1 m/s 60.1 mm 11.9° 1020.8 hPa 2.1 m/s 60.2 mm 9.1° 1023.8 hPa 0.9 m/s 13.4° 1022.1 hPa 2.1 m/s
10:00 15.5° 1024.0 hPa 1.4 m/s 26.3 mm 15.4° 1024.1 hPa 1.4 m/s 16.9° 1022.3 hPa 1.2 m/s 26.3 mm
13:00 18.6° 1024.2 hPa 1.7 m/s 26.4 mm 18.5° 1024.3 hPa 1.6 m/s 19.2° 1022.7 hPa 3.0 m/s 26.4 mm
16:00 17.9° 1023.3 hPa 2.8 m/s 26.6 mm 17.8° 1023.5 hPa 2.7 m/s 19.4° 1020.9 hPa 3.9 m/s 26.6 mm
19:00 17.0° 1022.6 hPa 3.5 m/s 26.7 mm 17.0° 1022.8 hPa 3.7 m/s 17.2° 1020.4 hPa 1.2 m/s 26.7 mm
22:00 15.1° 1022.9 hPa 2.0 m/s 26.7 mm 15.2° 1023.0 hPa 2.1 m/s 14.6° 1022.2 hPa 0.9 m/s 26.7 mm
 07:06     20:07    Daglengte: 13:01 Woensdag 08 Apr
01:00 13.5° 1023.0 hPa 0.6 m/s 26.7 mm 13.4° 1023.1 hPa 0.5 m/s 14.1° 1022.1 hPa 2.0 m/s 26.7 mm
04:00 12.8° 1022.1 hPa 1.9 m/s 26.7 mm 12.8° 1022.2 hPa 1.9 m/s 13.7° 1020.8 hPa 2.1 m/s 26.7 mm
07:00 12.3° 1021.3 hPa 3.2 m/s 26.7 mm 12.1° 1021.3 hPa 3.3 m/s 14.4° 1020.8 hPa 2.0 m/s 26.7 mm
10:00 16.6° 1021.3 hPa 3.6 m/s 27.4 mm 16.8° 1021.3 hPa 3.7 m/s 14.9° 1021.3 hPa 2.2 m/s 27.4 mm
13:00 20.9° 1021.4 hPa 3.9 m/s 28.1 mm 21.4° 1021.4 hPa 4.1 m/s 15.6° 1021.7 hPa 2.1 m/s 28.1 mm
16:00 18.6° 1020.9 hPa 3.0 m/s 28.9 mm 18.8° 1020.9 hPa 3.1 m/s 16.0° 1020.8 hPa 0.8 m/s 28.9 mm
19:00 16.1° 1020.4 hPa 2.2 m/s 29.1 mm 16.2° 1020.4 hPa 2.2 m/s 15.5° 1019.8 hPa 2.0 m/s 29.1 mm
22:00 15.1° 1020.1 hPa 1.9 m/s 29.2 mm 15.1° 1020.1 hPa 1.9 m/s 14.7° 1020.5 hPa 2.2 m/s 29.2 mm
 07:04     20:08    Daglengte: 13:04 Donderdag 09 Apr
01:00 14.2° 1019.9 hPa 1.7 m/s 29.2 mm 14.1° 1019.8 hPa 1.6 m/s 15.0° 1020.5 hPa 2.6 m/s 29.2 mm
04:00 14.6° 1019.1 hPa 2.3 m/s 30.3 mm 14.6° 1019.1 hPa 2.2 m/s 14.3° 1018.9 hPa 2.8 m/s 30.3 mm
07:00 15.0° 1018.5 hPa 2.9 m/s 35.1 mm 15.1° 1018.4 hPa 2.8 m/s 14.3° 1019.3 hPa 3.4 m/s 35.1 mm
10:00 16.9° 1018.9 hPa 3.8 m/s 37.1 mm 17.1° 1018.8 hPa 3.9 m/s 14.5° 1020.1 hPa 2.9 m/s 37.1 mm
13:00 18.9° 1019.4 hPa 4.8 m/s 37.5 mm 19.2° 1019.2 hPa 5.0 m/s 15.4° 1021.0 hPa 3.1 m/s 37.5 mm
16:00 17.3° 1019.1 hPa 3.7 m/s 37.9 mm 17.4° 1019.0 hPa 3.8 m/s 15.6° 1020.5 hPa 2.8 m/s 37.9 mm
19:00 15.7° 1018.8 hPa 2.5 m/s 38.0 mm 15.7° 1018.7 hPa 2.6 m/s 15.6° 1020.2 hPa 1.6 m/s 38.0 mm
22:00 14.7° 1019.4 hPa 2.0 m/s 38.0 mm 14.7° 1019.2 hPa 2.2 m/s 14.8° 1021.8 hPa 0.1 m/s 38.0 mm
 07:03     20:09    Daglengte: 13:06 Vrijdag 10 Apr
01:00 13.7° 1019.8 hPa 1.7 m/s 38.0 mm 13.7° 1019.6 hPa 1.8 m/s 14.2° 1022.4 hPa 0.4 m/s 38.0 mm
04:00 13.4° 1019.3 hPa 1.4 m/s 38.0 mm 13.4° 1019.2 hPa 1.6 m/s 13.4° 1021.5 hPa 0.2 m/s 38.0 mm
07:00 13.2° 1018.9 hPa 1.3 m/s 38.0 mm 13.2° 1018.7 hPa 1.3 m/s 13.0° 1021.7 hPa 1.0 m/s 38.0 mm
10:00 14.9° 1019.4 hPa 1.7 m/s 38.0 mm 14.7° 1019.1 hPa 1.8 m/s 17.0° 1022.2 hPa 0.7 m/s 38.0 mm
13:00 16.4° 1019.7 hPa 2.3 m/s 38.1 mm 16.2° 1019.5 hPa 2.2 m/s 19.1° 1021.4 hPa 3.0 m/s 38.1 mm
16:00 15.8° 1018.9 hPa 3.0 m/s 38.1 mm 15.6° 1018.8 hPa 2.8 m/s 18.4° 1020.6 hPa 5.8 m/s 38.1 mm
19:00 15.1° 1018.2 hPa 3.5 m/s 38.1 mm 15.0° 1018.0 hPa 3.4 m/s 16.3° 1020.0 hPa 5.2 m/s 38.1 mm
22:00 14.1° 1018.4 hPa 3.8 m/s 38.1 mm 14.2° 1018.2 hPa 3.8 m/s 13.7° 1021.1 hPa 4.2 m/s 38.1 mm
 07:01     20:10    Daglengte: 13:09 Zaterdag 11 Apr
01:00 13.3° 1018.6 hPa 4.0 m/s 38.1 mm 13.3° 1018.4 hPa 4.1 m/s 13.2° 1021.1 hPa 3.3 m/s 38.1 mm
07:00 12.6° 1017.8 hPa 3.1 m/s 38.1 mm 12.6° 1017.6 hPa 3.2 m/s 12.3° 1019.5 hPa 2.4 m/s 38.1 mm
13:00 18.1° 1017.5 hPa 3.2 m/s 38.1 mm 18.0° 1017.4 hPa 3.1 m/s 18.8° 1019.1 hPa 3.7 m/s 38.1 mm
19:00 16.6° 1014.9 hPa 4.3 m/s 38.1 mm 16.7° 1014.8 hPa 4.3 m/s 15.5° 1016.6 hPa 4.7 m/s 38.1 mm
 07:00     20:11    Daglengte: 13:11 Zondag 12 Apr
01:00 14.1° 1014.9 hPa 0.8 m/s 38.1 mm 14.2° 1014.8 hPa 0.6 m/s 12.8° 1016.0 hPa 3.5 m/s 38.1 mm
07:00 12.8° 1013.1 hPa 1.1 m/s 38.1 mm 13.0° 1013.2 hPa 1.2 m/s 10.7° 1012.3 hPa 0.6 m/s 38.1 mm
13:00 19.0° 1012.0 hPa 3.9 m/s 38.1 mm 19.2° 1012.2 hPa 4.0 m/s 17.1° 1010.1 hPa 3.0 m/s 38.1 mm
19:00 16.5° 1009.6 hPa 1.3 m/s 38.1 mm 16.6° 1009.8 hPa 1.3 m/s 14.9° 1007.8 hPa 1.8 m/s 38.1 mm
 06:58     20:12    Daglengte: 13:14 Maandag 13 Apr
01:00 14.5° 1009.7 hPa 3.0 m/s 38.1 mm 14.6° 1009.6 hPa 3.1 m/s 12.9° 1010.4 hPa 2.1 m/s 38.1 mm
07:00 12.8° 1009.6 hPa 3.7 m/s 38.1 mm 12.9° 1009.4 hPa 3.8 m/s 12.0° 1011.4 hPa 2.3 m/s 38.1 mm
13:00 19.2° 1012.7 hPa 4.6 m/s 38.1 mm 19.2° 1012.7 hPa 4.6 m/s 38.1 mm
19:00 18.7° 1011.7 hPa 6.4 m/s 38.3 mm 18.7° 1011.7 hPa 6.4 m/s 38.3 mm
 06:57     20:13    Daglengte: 13:16 Dinsdag 14 Apr
01:00 11.9° 1017.7 hPa 2.2 m/s 0.3 mm
07:00 10.9° 1016.5 hPa 2.1 m/s 0.5 mm
13:00 17.6° 1017.1 hPa 2.2 m/s 0.1 mm
19:00 16.7° 1015.6 hPa 3.3 m/s 0.1 mm
 06:55     20:14    Daglengte: 13:19 Woensdag 15 Apr
01:00 12.8° 1017.7 hPa 1.8 m/s 0.4 mm
07:00 12.4° 1017.3 hPa 1.9 m/s 0.3 mm
13:00 18.7° 1018.0 hPa 1.2 m/s 0.3 mm
19:00 17.8° 1016.5 hPa 3.0 m/s 0.2 mm
 06:54     20:15    Daglengte: 13:21 Donderdag 16 Apr
01:00 13.5° 1018.1 hPa 1.5 m/s 0.0 mm
07:00 12.3° 1017.3 hPa 1.3 m/s 0.0 mm
13:00 19.2° 1017.7 hPa 1.0 m/s 0.0 mm
19:00 17.4° 1016.1 hPa 3.3 m/s 0.0 mm
 06:52     20:16    Daglengte: 13:24 Vrijdag 17 Apr
01:00 13.1° 1017.4 hPa 1.7 m/s 0.1 mm
07:00 12.7° 1016.6 hPa 1.4 m/s 0.3 mm
13:00 18.9° 1017.0 hPa 1.4 m/s 0.8 mm
19:00 17.3° 1015.6 hPa 3.3 m/s 0.3 mm
 06:51     20:17    Daglengte: 13:26 Zaterdag 18 Apr
01:00 12.6° 1016.8 hPa 1.5 m/s 0.2 mm
07:00 11.6° 1016.3 hPa 1.2 m/s 0.3 mm
13:00 18.6° 1016.7 hPa 1.6 m/s 0.2 mm
19:00 16.9° 1015.2 hPa 3.5 m/s 0.3 mm
 06:49     20:18    Daglengte: 13:29 Zondag 19 Apr
01:00 12.4° 1016.0 hPa 1.7 m/s 0.2 mm
FMI Hirlam - 7.5 km EWN WRFDA - 12 km DWD ICON - 7 km GFS - 25 km Basiskaart






























































Updatetijd (Europe/Amsterdam) Resolutie Lengte Stap
FMI Hirlam 01:45, 07:45, 13:45, 19:45 7.5 km 49h 1h
EWN WRFDA 03:45, 09:45, 15:45, 21:45 12 km 73h 1h
DWD ICON 23:45, 05:45, 11:45, 17:45 7 km 75h 1h
GFS 01:45, 07:45, 13:45, 19:45 25 km 237h 3h
30+ mm
25-30 mm
20-25 mm
15-20 mm
10-15 mm
6-10 mm
4-6 mm
2-4 mm
1-2 mm
0.5-1 mm
0.2-0.5 mm
0.1-0.2 mm
30+ mm
25-30 mm
20-25 mm
15-20 mm
10-15 mm
6-10 mm
4-6 mm
2-4 mm
1-2 mm
0.5-1 mm
0.2-0.5 mm
0.1-0.2 mm
Sneeuwval
Natte sneeuw
Hagel
Vorst
30+ mm
25-30 mm
20-25 mm
15-20 mm
10-15 mm
6-10 mm
4-6 mm
2-4 mm
1-2 mm
0.5-1 mm
0.2-0.5 mm
0.1-0.2 mm
Sneeuwval
Natte sneeuw
Hagel
Vorst
Onweer
50 mm
40 mm
30 mm
26 mm
22 mm
18 mm
14 mm
10 mm
9 mm
8 mm
7 mm
6 mm
5 mm
4.5 mm
4 mm
3.5 mm
3 mm
2.5 mm
2 mm
1.5 mm
1 mm
0.8 mm
0.6 mm
0.4 mm
0.2 mm
0.05 mm
35°
30°
25°
20°
15°
10°
-5°
-10°
-15°
-20°
-25°
-30°
-35°
33> m/s
29 m/s
25 m/s
21 m/s
17 m/s
14 m/s
11 m/s
8 m/s
5 m/s
3 m/s
0 m/s
2600 J/kg
2400 J/kg
2200 J/kg
2000 J/kg
1800 J/kg
1600 J/kg
1400 J/kg
1200 J/kg
1000 J/kg
800 J/kg
600 J/kg
400 J/kg
200 J/kg
70 dBZ
65 dBZ
60 dBZ
55 dBZ
50 dBZ
45 dBZ
40 dBZ
35 dBZ
30 dBZ
25 dBZ
20 dBZ
15 dBZ
10 dBZ
5 dBZ
-1 K
-2 K
-3 K
-4 K
-5 K
-6 K
-7 K
-8 K
-9 K
950 m²/s²
900 m²/s²
850 m²/s²
800 m²/s²
750 m²/s²
700 m²/s²
650 m²/s²
600 m²/s²
550 m²/s²
500 m²/s²
450 m²/s²
400 m²/s²
350 m²/s²
300 m²/s²
250 m²/s²
200 m²/s²
150 m²/s²
100 m²/s²
46 m/s
44 m/s
42 m/s
40 m/s
38 m/s
36 m/s
34 m/s
32 m/s
30 m/s
28 m/s
26 m/s
24 m/s
22 m/s
20 m/s
16 m/s
12 m/s
8 m/s
4 m/s
30 m/s
28 m/s
26 m/s
24 m/s
22 m/s
20 m/s
18 m/s
16 m/s
14 m/s
12 m/s
10 m/s
8 m/s
6 m/s
4 m/s
2 m/s
3.0
2.8
2.6
2.4
2.2
2.0
1.8
1.6
1.4
1.2
1.0
0.8
0.6
0.4
0.2
15
14
13
12
11
10
9
8
7
6
5
4
3
2
1
90%
80%
70%
60%
50%
40%
30%
20%
10%
42
40
38
36
34
32
30
28
26
24
22
20
18
16
14
12
90+ cm
80-90 cm
70-80 cm
60-70 cm
50-60 cm
40-50 cm
30-40 cm
20-30 cm
10-20 cm
1-10 cm
Sneeuwval
Natte sneeuw
Regen
>120 mm
115 mm
110 mm
105 mm
100 mm
95 mm
90 mm
85 mm
80 mm
75 mm
70 mm
65 mm
60 mm
55 mm
50 mm
45 mm
45 mm
40 mm
35 mm
30 mm
25 mm
20 mm
15 mm
10 mm
5 mm
0.1 mm
960 hPa
880 hPa
800 hPa
720 hPa
640 hPa
560 hPa
584 gpdm
568 gpdm
552 gpdm
536 gpdm
520 gpdm
504 gpdm
488 gpdm
Extreem zwaar Noodweer Kans op onweer
15% 15% 5% 50% 15%

Dag




Kaart






35°
30°
25°
20°
15°
10°
-5°
-10°